sat.trackr.live / text

‹ back to catalog

STARLINK-1376

NORAD 45570 · 2020-025AR

PAYLOAD ACTIVE UNKNOWN

§ Identity

Operator
Country
US
Launch date
2020-04-22
Launch site
AFETR
Launch vehicle
Mass (kg)
RCS (m²)

Purposes: comms

External: N2YO · Heavens-Above · Gunter

§ Orbital elements

Epoch: 2026-09-09T10:25:35.726592Z

Period
93.11 min
Inclination
53.1540°
Eccentricity
0.0004236
Mean motion
15.46629320 rev/d
Perigee alt
423.7 km
Apogee alt
429.5 km
Semi-major
6,804.7 km
B*
2.9932e-4
RAAN
293.4568°
Arg perigee
26.5400°
Mean anomaly
333.5824°
Rev number
35,378

§ Raw data

STARLINK-13761 45570U 20025AR  26252.43444128  .00014759  00000+0  29932-3 0  99902 45570  53.1540 293.4568 0004236  26.5400 333.5824 15.46629320353782

JSON: /api/v1/satellites/45570 · /tle

For live sub-satellite position, see the globe view (requires WebGL).

§ Visibility from observer

Set your observer location to see the next 7 days of passes ≥ 10°. The values pass through the URL so the page stays shareable.

No JS? Fill the form by hand. The geolocation button needs JavaScript.